Regional Weather Roundup
Issued by NWS New Orleans/Baton Rouge, LA

Home | Current Version | Previous Version | Text Only | Print | Product List | Glossary Off
Versions: 1 2 3 4 5 6 7 8 9 10 11 12 13 14 15 16 17 18 19 20 21 22 23 24 25 26 27 28 29 30 31 32 33 34 35 36 37 38 39 40 41 42 43 44 45 46 47 48 49 50

400
ASUS44 KLIX 211710
RWRLIX
NEW ORLEANS REGIONAL WEATHER ROUNDUP
NATIONAL WEATHER SERVICE NEW ORLEANS LA
1100 AM CST SUN DEC 21 2014

NOTE: "FAIR" INDICATES FEW OR NO CLOUDS BELOW 12,000 FEET WITH NO
      SIGNIFICANT WEATHER AND/OR OBSTRUCTIONS TO VISIBILITY.
      SKY/WX - SKY CONDITION AND SIGNIFICANT WEATHER.
      TMP - AIR TEMPERATURE.     DP    - DEWPOINT TEMPERATURE.
      RH  - RELATIVE HUMIDITY.   PRES  - PRESSURE.
      HI  - HEAT INDEX.          WCI   - WIND CHILL INDEX.

*  THESE STATIONS ARE NOT NWS OR FAA STATIONS AND ARE NOT UNDER
   NWS QUALITY CONTROL.

LAZ038-040-048-061>063-065>067-069-211800-
SOUTHEAST LOUISIANA

CITY           SKY/WX    TMP DP  RH WIND       PRES   REMARKS
N.O. AUDUBON     N/A     56  53  89 MISG        N/A
N.O. INTL ARPT CLOUDY    56  49  77 CALM      30.12S
N.O. LAKEFRONT CLOUDY    56  49  77 E3        30.12F
N.O. DOWNTOWN* CLOUDY    55  46  71 E5        30.12S
SLIDELL        CLOUDY    57  49  74 CALM      30.11S
BATON ROUGE    CLOUDY    55  46  71 VRB3      30.13S
BOOTHVILLE     CLOUDY    58  54  86 NE6       30.11S
BELLE CHASSE   CLOUDY    57  51  80 SE5       30.10F
BOGALUSA*        N/A     55  47  73 CALM      30.13F
GALLIANO*      CLOUDY    57  52  84 MISG      30.12R
NEW ROADS*     CLOUDY    50  47  89 CALM      30.14F
GONZALES*      CLOUDY    55  52  88 CALM      30.12S
HAMMOND*       NOT AVBL
HOUMA*         CLOUDY    55  52  88 N3        30.12S FOG
PORT FOURCHON* NOT AVBL

$$

MSZ070-080>082-211800-
SOUTHERN MISSISSIPPI

CITY           SKY/WX    TMP DP  RH WIND       PRES   REMARKS
MCCOMB         PTSUNNY   52  45  77 N6        30.10F
GULFPORT       CLOUDY    57  50  77 E5        30.09F
BILOXI         CLOUDY    57  51  79 E7        30.10F
PASCAGOULA     CLOUDY    56  52  86 E7        30.10F
STENNIS ARPT*  MOSUNNY   55  46  71 CALM      30.11S

$$

COASTAL OBSERVATIONS
LAKE AND NEARSHORE STATIONS

STATION/POSITION TIME  TEMP    WIND        PRES    WAVE
                       AIR SEA DIR/SP/G            HT/PER
                 (UTC) (F)     (DEG/KT/KT) (MB)    (FT/S)
PASCAGOULA       1700   55      60/ 11/ 13 1018.5
WAVELAND YACHT   1700   56      CALM  /  2 1018.6
GRAND ISLE       1700   57 60   70/  6/  8 1019.8
SOUTHWEST PASS   1700   61                 1018.9
NEW CANAL        1700   54 56   30/  2/  3 1020.0
SHELL BEACH      1700   54 56   70/  7/  9 1019.3

OFFSHORE STATIONS

STATION/POSITION TIME  TEMP    WIND        PRES    WAVE
                       AIR SEA DIR/SP/G            HT/PER
                 (UTC) (F)     (DEG/KT/KT) (MB)    (FT/S)
64 S DAUPHIN ISL 1700   65 74   60/ 10/ 12 1018.1    4/ 6

$$




USA.gov is the U.S. government's official web portal to all federal, state and local government web resources and services.